Starlink 6327

operational
NORAD ID: 56522 Int'l Des: 2023-065 Owner: SPXS Country: US Constellation: starlink
LEOCIRCULAR

Starlink 6327について

説明を読み込み中...

リアルタイム位置

3D地球を読み込み中...

次回通過

高度履歴

Altitude vs Time

uPlot chart will show altitude changes over time

軌道要素

1 56522U 23065V 25306.36843053 .00000933 00000-0 84131-4 0 9990
2 56522 43.0032 182.0518 0001177 267.2308 92.8400 15.02533480137479
Epoch: Nov 2, 2025 • Age: 23 hours

現在のステータス

高度 562.4 km
速度 7.59 km/s
衛星直下点 40.17°N, 85.93°E
打ち上げ日 May 14, 2023
運用期間 2.4 years
タイプ internet

技術仕様

分類 Payload
質量 305.00 kg
乾燥質量 290.00 kg
総質量 305.00 kg
長さ 0.20 m
直径 2.80 m
スパン 9.00 m
形状 Box + pan
製造者 SPXS
バスタイプ Starlink
フェーズステータス In Orbit
所有者/国 SPXS/US

大規模コンステレーション

Loading constellations...